This is the latest recevied weather packets stored in our database for station/object K1RTA-1. If no packets are shown the sender has not sent any weather packets the latest 10 day(s).
| Time | Temp. | Humidity | Pressure | Rain* | Wind** | Luminosity | Snow |
|---|---|---|---|---|---|---|---|
| 1777787488 | 9.44° C | 93% | 1008.9 hPa | 0 mm | - | - | - |
| 1777786589 | 10° C | 92% | 1009.2 hPa | 0 mm | - | - | - |
| 1777785688 | 10° C | 92% | 1009.7 hPa | 0 mm | - | - | - |
| 1777784788 | 10° C | 93% | 1010 hPa | 0 mm | - | - | - |
| 1777783888 | 10° C | 92% | 1010.3 hPa | 0 mm | - | - | - |
| 1777782989 | 10° C | 92% | 1010.5 hPa | 0.25 mm | - | - | - |
| 1777782088 | 10° C | 92% | 1010.9 hPa | 0.76 mm | - | - | - |
| 1777781189 | 10° C | 92% | 1010.8 hPa | 1.27 mm | - | - | - |
| 1777780289 | 10.56° C | 92% | 1010.8 hPa | 1.52 mm | - | - | - |
| 1777779388 | 10.56° C | 92% | 1010.9 hPa | 2.03 mm | - | - | - |
| 1777778489 | 10.56° C | 92% | 1011.1 hPa | 1.52 mm | - | - | - |
| 1777777589 | 10.56° C | 92% | 1011.3 hPa | 1.78 mm | - | - | - |
| 1777776690 | 10.56° C | 92% | 1011.4 hPa | 1.52 mm | - | - | - |
| 1777775789 | 10.56° C | 91% | 1011.4 hPa | 1.27 mm | - | - | - |
| 1777774888 | 10.56° C | 91% | 1011.6 hPa | 1.52 mm | - | - | - |
| 1777773988 | 10.56° C | 91% | 1011.9 hPa | 1.02 mm | - | - | - |
| 1777773089 | 10.56° C | 91% | 1012.1 hPa | 0.76 mm | - | - | - |
| 1777772189 | 10.56° C | 91% | 1012.3 hPa | 0.76 mm | - | - | - |
| 1777771288 | 10.56° C | 90% | 1012.3 hPa | 0.76 mm | - | - | - |
| 1777770389 | 10.56° C | 90% | 1012.2 hPa | 0.51 mm | - | - | - |
| 1777769488 | 10.56° C | 89% | 1012.2 hPa | 0.25 mm | - | - | - |
| 1777768588 | 10.56° C | 88% | 1012.4 hPa | 0.25 mm | - | - | - |
| 1777767689 | 10.56° C | 87% | 1012.3 hPa | 0 mm | - | - | - |
| 1777766789 | 10.56° C | 85% | 1012.1 hPa | 0 mm | - | - | - |
| 1777765888 | 10.56° C | 82% | 1012.1 hPa | 0 mm | - | - | - |
* Rain latest hour (hover to see other rain measurements)
** Current wind speed in m/s (hover to see current wind gust speed)